Golden Valley, AZ

8:39 AM MST on August 28, 2016 (GMT -0700)
Kingman

Weather History for KIGM - May, 2013

Change the Weather History Date:

Tuesday, May 21, 2013

  Actual Average Record
Temperature  
Mean Temperature 71 °F 70 °F  
Max Temperature 89 °F 87 °F 106 °F (1923)
Min Temperature 52 °F 54 °F 30 °F (1975)
Degree Days  
Heating Degree Days 0 1  
Month to date heating degree days 18 46  
Since 1 July heating degree days 2899 3092  
Cooling Degree Days 6 6  
Month to date cooling degree days 97 91  
Year to date cooling degree days 137 122  
Growing Degree Days 22 (Base 50)    
Moisture  
Dew Point 21 °F    
Average Humidity 20    
Maximum Humidity 33    
Minimum Humidity 6    
Precipitation  
Precipitation 0.00 in 0.00 in 1.05 in (1920)
Month to date precipitation T 0.10  
Year to date precipitation 1.18 3.43  
Sea Level Pressure  
Sea Level Pressure 29.74 in    
Wind  
Wind Speed 9 mph (South)    
Max Wind Speed 25 mph    
Max Gust Speed 33 mph    
Visibility 10 miles    
Events      
T = Trace of Precipitation, MM = Missing Value Source: NWS Daily Summary

Daily Weather History Graph

Daily Weather History Graph

Search for Another Location

Airport or City:

Trip Planner

Search our weather history database for the weather conditions in past years. The results will help you decide how hot, cold, wet, or windy it might be!

Date:

Astronomy

May. 21, 2013 Rise Set
Actual Time 5:27 AM MST 7:37 PM MST
Civil Twilight 4:58 AM MST 8:06 PM MST
Nautical Twilight 4:23 AM MST 8:41 PM MST
Astronomical Twilight 3:45 AM MST 9:19 PM MST
Moon 4:03 PM MST (5/21) 2:49 AM MST (5/21)
Length of Visible Light 15h 07m
Length of Day
14h 10m
Waxing Gibbous, 85% of the Moon is Illuminated
May 21
Waxing Gibbous
May 24
Full
May 31
Last Quarter
Jun 8
New
Jun 16
First Quarter

Hourly Weather History & Observations

Time (MST) Temp. Dew Point Humidity Pressure Visibility Wind Dir Wind Speed Gust Speed Precip Events Conditions
12:51 AM 57.9 °F 23.0 °F 26% 29.86 in 10.0 mi Calm Calm - N/A   Clear
1:51 AM 57.0 °F 23.0 °F 27% 29.85 in 10.0 mi SE 5.8 mph - N/A   Clear
2:51 AM 57.0 °F 23.0 °F 27% 29.84 in 10.0 mi Calm Calm - N/A   Clear
3:51 AM 55.0 °F 25.0 °F 31% 29.83 in 10.0 mi Calm Calm - N/A   Clear
4:51 AM 59.0 °F 27.0 °F 29% 29.82 in 10.0 mi Calm Calm - N/A   Clear
5:51 AM 57.0 °F 28.9 °F 34% 29.83 in 10.0 mi SE 11.5 mph - N/A   Clear
6:51 AM 62.1 °F 25.0 °F 24% 29.83 in 10.0 mi Calm Calm - N/A   Clear
7:51 AM 75.0 °F 28.9 °F 18% 29.82 in 10.0 mi East 9.2 mph - N/A   Clear
8:51 AM 77.0 °F 28.0 °F 17% 29.82 in 10.0 mi Variable 4.6 mph - N/A   Clear
9:51 AM 80.1 °F 26.1 °F 14% 29.82 in 10.0 mi East 5.8 mph - N/A   Clear
10:51 AM 82.0 °F 23.0 °F 11% 29.81 in 10.0 mi Variable 5.8 mph - N/A   Clear
11:51 AM 82.9 °F 21.0 °F 10% 29.79 in 10.0 mi South 8.1 mph 16.1 mph N/A   Clear
12:51 PM 84.0 °F 19.0 °F 9% 29.77 in 10.0 mi SW 5.8 mph 21.9 mph N/A   Clear
1:51 PM 86.0 °F 18.0 °F 8% 29.75 in 10.0 mi SW 15.0 mph 23.0 mph N/A   Clear
2:51 PM 87.1 °F 17.1 °F 8% 29.72 in 10.0 mi WSW 20.7 mph 31.1 mph N/A   Clear
3:51 PM 86.0 °F 14.0 °F 7% 29.70 in 10.0 mi SW 19.6 mph 27.6 mph N/A   Clear
4:51 PM 84.9 °F 16.0 °F 8% 29.68 in 10.0 mi WSW 15.0 mph - N/A   Clear
5:51 PM 86.0 °F 15.1 °F 7% 29.65 in 10.0 mi SSW 19.6 mph 23.0 mph N/A   Clear
6:51 PM 82.9 °F 18.0 °F 9% 29.64 in 10.0 mi South 13.8 mph - N/A   Clear
7:51 PM 79.0 °F 16.0 °F 9% 29.62 in 10.0 mi South 12.7 mph - N/A   Clear
8:51 PM 72.0 °F 12.9 °F 10% 29.63 in 10.0 mi SSE 11.5 mph - N/A   Clear
9:51 PM 66.0 °F 12.9 °F 13% 29.64 in 10.0 mi SSE 3.5 mph - N/A   Clear
10:51 PM 73.9 °F 16.0 °F 11% 29.60 in 10.0 mi South 10.4 mph - N/A   Clear
11:51 PM 75.9 °F 21.9 °F 13% 29.59 in 10.0 mi South 11.5 mph - N/A   Clear